Location: Byszew
(52.1813°N, 19.2693°E)
Time: 21:39:00
(UTC+00:00)

Spot 2 Rocket - Pass Details

Date: 03 March 2021
Orbit: 757 x 772 km, 98.5° (Epoch: 16 April)

Event Time Altitude Azimuth Distance (km) Brightness Sun altitude
Exits shadow 20:01:34 44° 333° (NNW) 1,063 4.5 -32.2°
Drops below altitude 10° 20:05:03 10° 342° (NNW) 2,329 6.6 -32.6°
Sets 20:07:23 0° 344° (NNW) 3,262 7.5 -32.9°
